| time (UTC) | temp C | wind direction | speed KPH | gust KPH | rain 1hr cm | rain 24hr cm | rain mn cm | humidity % | barometer mb |
| 20260507014537 | 11 | 203 | 14.5 | 32.2 | 0.00 | 2.26 | 0.00 | 77 | 1017.6 |
| 20260507013044 | 11 | 216 | 20.9 | 35.4 | 0.00 | 2.26 | 0.00 | 76 | 1017.5 |
| 20260507011547 | 11 | 209 | 11.3 | 27.4 | 0.00 | 2.26 | 0.00 | 78 | 1017.4 |
| 20260507010048 | 11 | 186 | 11.3 | 29.0 | 0.00 | 2.26 | 0.00 | 79 | 1017.5 |
| 20260507004540 | 11 | 231 | 4.8 | 14.5 | 0.00 | 2.90 | 0.00 | 79 | 1017.4 |
| 20260507003049 | 11 | 254 | 9.7 | 19.3 | 0.00 | 2.90 | 0.00 | 79 | 1017.4 |
| 20260507001608 | 11 | 271 | 3.2 | 17.7 | 0.00 | 2.90 | 0.00 | 79 | 1017.3 |
| 20260507000045 | 11 | 219 | 9.7 | 20.9 | 0.00 | 2.90 | 0.00 | 78 | 1017.3 |
| 20260506234540 | 11 | 233 | 19.3 | 35.4 | 0.00 | 5.08 | 0.00 | 76 | 1017.3 |
| 20260506233051 | 11 | 214 | 16.1 | 38.6 | 0.00 | 5.08 | 0.00 | 77 | 1017.1 |
| 20260506231544 | 11 | 215 | 17.7 | 35.4 | 0.00 | 5.08 | 0.00 | 77 | 1016.9 |
| 20260506230056 | 11 | 226 | 22.5 | 46.7 | 0.00 | 5.08 | 0.00 | 77 | 1016.8 |
| 20260506224544 | 11 | 239 | 19.3 | 37.0 | 0.00 | 6.25 | 0.00 | 78 | 1016.5 |
| 20260506223038 | 11 | 210 | 22.5 | 40.2 | 0.00 | 6.25 | 0.00 | 78 | 1016.3 |
| 20260506221603 | 11 | 205 | 19.3 | 35.4 | 0.00 | 6.25 | 0.00 | 78 | 1016.2 |
| 20260506220040 | 11 | 219 | 16.1 | 37.0 | 0.00 | 6.25 | 0.00 | 79 | 1015.9 |
| 20260506214547 | 11 | 221 | 22.5 | 38.6 | 0.00 | 7.72 | 6.25 | 78 | 1015.6 |
| 20260506213043 | 11 | 203 | 16.1 | 37.0 | 0.00 | 7.72 | 6.25 | 78 | 1015.2 |
| 20260506211543 | 11 | 272 | 22.5 | 43.5 | 0.00 | 7.72 | 6.25 | 78 | 1014.9 |
| 20260506210053 | 11 | 229 | 32.2 | 49.9 | 0.00 | 7.72 | 6.25 | 80 | 1014.7 |
| 20260506204550 | 11 | 215 | 25.7 | 43.5 | 0.00 | 8.51 | 6.25 | 81 | 1014.2 |
| 20260506203047 | 11 | 232 | 27.4 | 43.5 | 0.00 | 8.51 | 6.25 | 81 | 1014.0 |
| 20260506201544 | 11 | 233 | 30.6 | 48.3 | 0.00 | 8.51 | 6.25 | 81 | 1013.8 |
| 20260506200044 | 11 | 183 | 27.4 | 46.7 | 0.00 | 8.51 | 6.25 | 82 | 1013.8 |
| 20260506194542 | 11 | 213 | 32.2 | 51.5 | 0.00 | 8.94 | 6.25 | 82 | 1013.6 |
| 20260506193051 | 11 | 224 | 32.2 | 49.9 | 0.00 | 8.94 | 6.25 | 83 | 1013.4 |
| 20260506191549 | 11 | 211 | 27.4 | 48.3 | 0.00 | 8.94 | 6.25 | 84 | 1013.1 |
| 20260506190048 | 11 | 214 | 32.2 | 49.9 | 0.00 | 8.92 | 6.22 | 84 | 1012.8 |
| 20260506184547 | 11 | 233 | 32.2 | 51.5 | 0.00 | 9.78 | 6.22 | 84 | 1012.0 |
| 20260506183047 | 11 | 207 | 29.0 | 45.1 | 0.00 | 9.78 | 6.22 | 84 | 1012.1 |
| 20260506181605 | 11 | 223 | 24.1 | 41.8 | 0.03 | 9.78 | 6.22 | 85 | 1011.6 |
| 20260506180055 | 11 | 216 | 22.5 | 45.1 | 0.08 | 9.78 | 6.22 | 86 | 1011.5 |
| 20260506174558 | 11 | 234 | 20.9 | 40.2 | 0.15 | 10.69 | 6.22 | 87 | 1011.6 |
| 20260506173059 | 11 | 231 | 14.5 | 35.4 | 0.20 | 10.67 | 6.20 | 88 | 1011.1 |
| 20260506171549 | 11 | 264 | 19.3 | 40.2 | 0.30 | 10.64 | 6.20 | 87 | 1011.1 |
| 20260506170053 | 11 | 246 | 20.9 | 32.2 | 0.30 | 10.62 | 6.15 | 89 | 1010.8 |
| 20260506164558 | 11 | 242 | 9.7 | 19.3 | 0.25 | 11.23 | 6.07 | 91 | 1010.4 |
| 20260506163051 | 11 | 205 | 9.7 | 24.1 | 0.18 | 11.13 | 5.97 | 90 | 1010.6 |
| 20260506161553 | 11 | 333 | 6.4 | 19.3 | 0.08 | 11.02 | 5.87 | 91 | 1010.4 |
| 20260506160056 | 11 | 239 | 3.2 | 17.7 | 0.03 | 11.00 | 5.82 | 91 | 1010.3 |
| 20260506154553 | 10 | 174 | 4.8 | 12.9 | 0.08 | 11.15 | 5.82 | 91 | 1010.5 |
| 20260506153047 | 10 | 0 | 3.2 | 8.0 | 0.18 | 11.13 | 5.79 | 91 | 1010.5 |
| 20260506151544 | 10 | 360 | 1.6 | 9.7 | 0.28 | 11.13 | 5.79 | 91 | 1010.3 |
| 20260506150049 | 10 | 0 | 1.6 | 16.1 | 0.38 | 11.10 | 5.77 | 92 | 1010.3 |
| 20260506144548 | 10 | 13 | 4.8 | 14.5 | 0.46 | 11.07 | 5.71 | 92 | 1010.5 |
| 20260506143050 | 10 | 337 | 3.2 | 6.4 | 0.33 | 10.95 | 5.59 | 92 | 1010.4 |
| 20260506141547 | 10 | 352 | 3.2 | 6.4 | 0.25 | 10.87 | 5.51 | 92 | 1010.3 |
| 20260506140048 | 10 | 17 | 4.8 | 8.0 | 0.13 | 10.72 | 5.36 | 91 | 1010.1 |
| 20260506134541 | 10 | 321 | 4.8 | 11.3 | 0.05 | 10.64 | 5.26 | 90 | 1010.1 |
| 20260506133101 | 10 | 323 | 3.2 | 9.7 | 0.13 | 10.64 | 5.26 | 91 | 1010.2 |
| 20260506131547 | 10 | 13 | 3.2 | 12.9 | 0.20 | 10.64 | 5.26 | 91 | 1009.9 |
| 20260506130049 | 10 | 331 | 4.8 | 9.7 | 0.28 | 10.62 | 5.23 | 90 | 1009.9 |
| 20260506124543 | 10 | 322 | 4.8 | 6.4 | 0.25 | 10.59 | 5.18 | 88 | 1009.8 |
| 20260506123044 | 10 | 9 | 1.6 | 3.2 | 0.20 | 10.52 | 5.11 | 89 | 1009.7 |
| 20260506121554 | 10 | 180 | 0.0 | 3.2 | 0.15 | 10.44 | 5.03 | 89 | 1009.7 |
| 20260506120055 | 10 | 0 | 0.0 | 0.0 | 0.08 | 10.34 | 4.95 | 86 | 1009.4 |
| 20260506114544 | 10 | 0 | 0.0 | 3.2 | 0.05 | 10.34 | 4.93 | 85 | 1009.2 |
| 20260506113044 | 11 | 0 | 0.0 | 3.2 | 0.00 | 10.29 | 4.88 | 83 | 1009.2 |
| 20260506111549 | 11 | 0 | 3.2 | 12.9 | 0.00 | 10.26 | 4.88 | 81 | 1009.2 |
| 20260506110048 | 11 | 25 | 4.8 | 12.9 | 0.00 | 10.26 | 4.88 | 80 | 1009.1 |
| 20260506104558 | 10 | 324 | 1.6 | 9.7 | 0.00 | 10.29 | 4.88 | 82 | 1009.2 |
| 20260506103047 | 10 | 17 | 3.2 | 11.3 | 0.05 | 10.29 | 4.88 | 83 | 1009.1 |
| 20260506101544 | 10 | 17 | 3.2 | 11.3 | 0.05 | 10.29 | 4.88 | 83 | 1009.2 |
| 20260506100053 | 10 | 300 | 4.8 | 12.9 | 0.03 | 10.26 | 4.85 | 84 | 1009.4 |
| 20260506094540 | 10 | 35 | 8.0 | 16.1 | 0.03 | 10.26 | 4.85 | 82 | 1009.3 |
| 20260506093040 | 10 | 43 | 8.0 | 16.1 | 0.00 | 10.24 | 4.80 | 78 | 1009.2 |
| 20260506091544 | 10 | 9 | 8.0 | 20.9 | 0.00 | 10.24 | 4.80 | 77 | 1009.2 |
| 20260506090044 | 10 | 11 | 4.8 | 24.1 | 0.00 | 10.24 | 4.80 | 80 | 1009.3 |
| 20260506084614 | 10 | 11 | 6.4 | 17.7 | 0.00 | 10.24 | 4.80 | 81 | 1008.9 |
| 20260506083052 | 10 | 9 | 9.7 | 17.7 | 0.00 | 10.24 | 4.80 | 82 | 1009.0 |
| 20260506081552 | 9 | 26 | 9.7 | 20.9 | 0.00 | 10.24 | 4.80 | 83 | 1009.1 |
| 20260506073046 | 8 | 177 | 3.2 | 14.5 | 0.18 | 10.24 | 4.80 | 88 | 1009.3 |
| 20260506071544 | 8 | 360 | 4.8 | 19.3 | 0.23 | 10.24 | 4.80 | 89 | 1009.4 |
| 20260506061554 | 8 | 309 | 16.1 | 25.7 | 0.05 | 9.98 | 4.57 | 85 | 1009.4 |
| 20260506044547 | 9 | 180 | 17.7 | 40.2 | 0.13 | 9.91 | 4.50 | 88 | 1009.2 |
| 20260506043045 | 9 | 163 | 17.7 | 37.0 | 0.10 | 9.86 | 4.45 | 89 | 1009.3 |
| 20260506041551 | 9 | 188 | 17.7 | 30.6 | 0.10 | 9.86 | 4.42 | 90 | 1009.6 |
| 20260506040050 | 9 | 179 | 17.7 | 43.5 | 0.10 | 9.80 | 4.39 | 89 | 1009.6 |
| 20260506034548 | 9 | 179 | 20.9 | 40.2 | 0.08 | 9.78 | 4.34 | 89 | 1009.6 |
| 20260506033048 | 9 | 205 | 17.7 | 30.6 | 0.08 | 9.75 | 4.32 | 91 | 1009.5 |
| 20260506031551 | 8 | 169 | 17.7 | 45.1 | 0.05 | 9.70 | 4.29 | 90 | 1009.4 |
| 20260506030040 | 9 | 184 | 32.2 | 46.7 | 0.03 | 9.68 | 4.27 | 90 | 1009.2 |
| 20260506024544 | 9 | 167 | 19.3 | 37.0 | 0.00 | 9.68 | 4.24 | 92 | 1009.1 |
| 20260506023100 | 10 | 167 | 22.5 | 37.0 | 0.05 | 9.68 | 4.24 | 91 | 1009.5 |
| 20260506021604 | 10 | 173 | 17.7 | 30.6 | 0.08 | 9.65 | 4.22 | 92 | 1009.3 |
| 20260506020047 | 9 | 191 | 25.7 | 54.7 | 0.23 | 9.65 | 4.22 | 91 | 1008.8 |